| time (UTC) | temp C | wind direction | speed KPH | gust KPH | rain 1hr cm | rain 24hr cm | rain mn cm | humidity % | barometer mb |
| 20260505040804 | 23 | 0.0 | 0.0 | 0.00 | 0.00 | 0.00 | 28 | ||
| 20260505033804 | 22 | 0.0 | 0.0 | 0.00 | 0.00 | 0.00 | 28 | ||
| 20260505030805 | 21 | 0.0 | 0.0 | 0.00 | 0.00 | 0.00 | 29 | ||
| 20260505023806 | 21 | 0.0 | 0.0 | 0.00 | 0.00 | 0.00 | 31 | ||
| 20260505020805 | 20 | 0.0 | 0.0 | 0.00 | 0.00 | 0.00 | 34 | ||
| 20260505013806 | 18 | 0.0 | 0.0 | 0.00 | 0.00 | 0.00 | 36 | ||
| 20260505010804 | 18 | 0.0 | 0.0 | 0.00 | 0.00 | 0.00 | 39 | ||
| 20260505003806 | 17 | 0.0 | 0.0 | 0.00 | 0.00 | 0.00 | 39 | ||
| 20260505000805 | 16 | 0.0 | 0.0 | 0.00 | 0.00 | 0.00 | 39 | ||
| 20260504233805 | 16 | 0.0 | 0.0 | 0.00 | 0.00 | 0.00 | 40 | ||
| 20260504230805 | 15 | 0.0 | 0.0 | 0.00 | 0.00 | 0.00 | 40 | ||
| 20260504223804 | 15 | 0.0 | 0.0 | 0.00 | 0.00 | 0.00 | 41 | ||
| 20260504220804 | 14 | 0.0 | 0.0 | 0.00 | 0.00 | 0.00 | 42 | ||
| 20260504213806 | 13 | 0.0 | 0.0 | 0.00 | 0.00 | 0.00 | 43 | ||
| 20260504210806 | 12 | 0.0 | 0.0 | 0.00 | 0.00 | 0.00 | 43 | ||
| 20260504203806 | 12 | 0.0 | 0.0 | 0.00 | 0.00 | 0.00 | 43 | ||
| 20260504200806 | 11 | 0.0 | 0.0 | 0.00 | 0.00 | 0.00 | 45 | ||
| 20260504193804 | 12 | 0.0 | 0.0 | 0.00 | 0.00 | 0.00 | 46 | ||
| 20260504190806 | 12 | 0.0 | 0.0 | 0.00 | 0.00 | 0.00 | 44 | ||
| 20260504183803 | 12 | 0.0 | 0.0 | 0.00 | 0.00 | 0.00 | 43 | ||
| 20260504180806 | 13 | 0.0 | 0.0 | 0.00 | 0.00 | 0.00 | 42 | ||
| 20260504173803 | 13 | 0.0 | 0.0 | 0.00 | 0.00 | 0.00 | 41 | ||
| 20260504170804 | 14 | 0.0 | 0.0 | 0.00 | 0.00 | 0.00 | 41 | ||
| 20260504150804 | 16 | 0.0 | 0.0 | 0.00 | 0.00 | 0.00 | 39 | ||
| 20260504140804 | 17 | 0.0 | 0.0 | 0.00 | 0.00 | 0.00 | 39 | ||
| 20260504130807 | 18 | 0.0 | 0.0 | 0.00 | 0.00 | 0.00 | 47 | ||
| 20260504080806 | 23 | 0.0 | 0.0 | 0.00 | 0.00 | 0.00 | 50 |